Terminal Aerodrome Forecast
Issued by NWS Grand Rapids, MI

Home | Current Version | Previous Version | Text Only | Print | Product List | Glossary On
Versions: 1 2 3 4 5 6 7 8 9 10 11 12 13 14
000
FTUS43 KGRR 172300
TAFGRR
TAF
KGRR 172340Z 1800/1824 27012KT P6SM SCT140 BKN250
     FM180200 28005KT P6SM SCT035 OVC120
     FM180800 31005KT P6SM VCSH OVC035
     FM181400 31010KT P6SM SCT035=

USA.gov is the U.S. government's official web portal to all federal, state and local government web resources and services.